Back to catalog

SL-8 DEB *

AliveLEO
NORAD 14808·DEBRIS·🇷🇺 Russia

Launched Jul 1, 1980 from Plesetsk Cosmodrome

Loading…

Next Passes (next 24 hours)

TLE

FreshSource: Space-Track

Epoch: Sep 14, 2026, 00:25 UTC

1 14808U 80056C   26257.01788205  .00000737  00000-0  19549-3 0  9991
2 14808  74.0345  98.6979 0012102  34.6569 117.3805 14.50415441241824

Track SL-8 DEB * in real time with AllMySat

Download on the App Store